EW6420 Weather Reports


Display with metric or nautical units.
time (UTC)temp
F
wind
direction
speed
MPH
gust
MPH
rain 1hr
in
rain 24hr
in
rain mn
in
humidity
%
barometer
mb
20260831124503 52 106 0.0 0.0 0.00 0.00 0.00 87 1013.6
20260831120005 53 106 0.0 0.0 0.00 0.00 0.00 87 1013.9
20260831114501 53 106 0.0 0.0 0.00 0.00 0.00 87 1013.9
20260831113001 54 106 0.0 0.0 0.00 0.00 0.00 86 1014.0
20260831110000 54 106 0.0 0.0 0.00 0.00 0.00 85 1014.2
20260831104501 54 106 0.0 0.0 0.00 0.00 0.00 85 1014.4
20260831103002 55 106 0.0 0.0 0.00 0.00 0.00 84 1014.4
20260831101501 55 106 0.0 0.0 0.00 0.00 0.00 84 1014.4
20260831100006 55 106 0.0 0.0 0.00 0.00 0.00 83 1014.4
20260831093001 55 106 0.0 0.0 0.00 0.00 0.00 82 1014.8
20260831091501 56 106 0.0 0.0 0.00 0.00 0.00 81 1015.1
20260831090004 56 106 0.0 0.0 0.00 0.00 0.00 80 1015.3
20260831082959 57 106 0.0 0.0 0.00 0.00 0.00 79 1015.3
20260831081501 57 106 0.0 0.0 0.00 0.00 0.00 77 1015.4
20260831080005 57 106 0.0 0.0 0.00 0.00 0.00 76 1015.4
20260831074503 58 106 0.0 0.0 0.00 0.00 0.00 75 1015.5
20260831073003 58 106 0.0 0.0 0.00 0.00 0.00 74 1015.7
20260831071503 58 106 0.0 0.0 0.00 0.00 0.00 74 1015.7
20260831070007 58 106 0.0 0.0 0.00 0.00 0.00 73 1015.9
20260831064503 59 106 0.0 0.0 0.00 0.00 0.00 72 1016.0
20260831063003 59 106 0.0 0.0 0.00 0.00 0.00 71 1016.2
20260831061503 60 106 0.0 0.0 0.00 0.00 0.00 70 1016.4
20260831060005 60 106 0.0 0.0 0.00 0.00 0.00 70 1016.5
20260831054504 60 106 0.0 0.0 0.00 0.00 0.00 69 1016.6
20260831053004 61 106 0.0 0.0 0.00 0.00 0.00 68 1016.8
20260831051503 61 106 0.0 0.0 0.00 0.00 0.00 66 1016.9
20260831050005 61 106 0.0 2.0 0.00 0.00 0.00 65 1016.8
20260831044504 62 106 0.0 0.0 0.00 0.00 0.00 65 1016.9
20260831043003 62 106 0.0 2.0 0.00 0.00 0.00 64 1017.0
20260831041503 62 106 0.0 0.0 0.00 0.00 0.00 63 1017.0
20260831040003 63 106 0.0 0.0 0.00 0.00 0.00 62 1017.0
20260831034501 64 106 0.0 2.0 0.00 0.00 0.00 60 1016.9
20260831033001 64 106 0.0 2.0 0.00 0.00 0.00 60 1016.8
20260831031501 65 106 0.0 2.0 0.00 0.00 0.00 59 1016.8
20260831024503 66 106 0.0 2.0 0.00 0.00 0.00 57 1016.8
20260831020006 67 106 0.0 2.0 0.00 0.00 0.00 53 1017.1
20260831014501 68 98 0.0 2.0 0.00 0.00 0.00 52 1017.3
20260831013002 68 98 0.0 2.0 0.00 0.00 0.00 51 1017.3
20260831011502 69 98 0.0 2.0 0.00 0.00 0.00 51 1017.4
20260831010002 69 98 0.0 2.0 0.00 0.00 0.00 51 1017.5
20260831004502 69 98 0.0 3.0 0.00 0.00 0.00 51 1017.6
20260831003001 70 106 0.0 2.0 0.00 0.00 0.00 51 1017.6
20260831001503 69 107 0.0 2.0 0.00 0.00 0.00 53 1017.8
20260831000007 68 125 0.0 2.0 0.00 0.00 0.00 55 1017.8
20260830234502 68 61 0.0 2.0 0.00 0.00 0.00 54 1018.0
20260830233002 68 146 0.0 2.0 0.00 0.00 0.00 55 1018.1
20260830231502 68 68 0.0 2.0 0.00 0.00 0.00 56 1018.3
20260830230005 68 79 0.0 3.0 0.00 0.00 0.00 56 1018.2
20260830223002 68 139 0.0 3.0 0.00 0.00 0.00 55 1018.6
20260830220007 67 126 0.0 2.0 0.00 0.00 0.00 57 1018.8
20260830214502 66 90 0.0 2.0 0.00 0.00 0.00 58 1019.0
20260830213001 66 83 0.0 2.0 0.00 0.00 0.00 60 1019.1
20260830211503 65 83 0.0 2.0 0.00 0.00 0.00 61 1019.3
20260830210006 64 113 0.0 2.0 0.00 0.02 0.00 62 1019.4
20260830204501 64 129 0.0 2.0 0.00 0.02 0.00 63 1019.6
20260830203002 64 173 1.0 4.0 0.00 0.02 0.00 64 1019.7
20260830201501 64 115 0.0 2.0 0.00 0.02 0.00 66 1019.7
20260830194502 63 115 0.0 3.0 0.00 0.02 0.00 67 1019.9
20260830193000 62 102 1.0 3.0 0.00 0.02 0.00 67 1019.9
20260830191500 62 143 0.0 2.0 0.00 0.02 0.00 70 1020.0
20260830190001 61 173 0.0 3.0 0.00 0.02 0.00 70 1020.0
20260830183001 61 111 0.0 2.0 0.00 0.02 0.00 72 1020.3
20260830180001 60 110 0.0 2.0 0.00 0.03 0.00 73 1020.2
20260830174500 60 110 0.0 2.0 0.00 0.03 0.00 73 1020.2
20260830173001 60 112 0.0 3.0 0.00 0.03 0.00 74 1020.1
20260830171501 59 182 0.0 2.0 0.00 0.03 0.00 76 1020.0
20260830163003 58 182 0.0 2.0 0.00 0.04 0.00 75 1020.1
20260830161501 58 182 0.0 2.0 0.00 0.04 0.00 76 1020.2
20260830160002 58 182 0.0 2.0 0.00 0.39 0.00 76 1020.3
20260830154500 57 161 0.0 2.0 0.00 0.39 0.00 76 1020.2
20260830150004 54 42 0.0 1.0 0.00 0.39 0.00 78 1020.1
20260830144502 53 42 0.0 0.0 0.00 0.39 0.00 81 1020.1
20260830143002 53 42 0.0 0.0 0.00 0.39 0.00 82 1020.0
20260830141501 53 42 0.0 0.0 0.00 0.39 0.00 83 1019.8
20260830140007 52 42 0.0 0.0 0.00 0.39 0.00 82 1019.7
20260830134500 52 42 0.0 0.0 0.00 0.39 0.00 83 1019.6
20260830133001 52 42 0.0 0.0 0.00 0.39 0.00 82 1019.6
20260830130005 53 42 0.0 0.0 0.00 0.39 0.00 82 1019.6